EW1476 Weather Reports


Display with metric or nautical units.
time (UTC)temp
F
wind
direction
speed
MPH
gust
MPH
rain 1hr
in
rain 24hr
in
rain mn
in
humidity
%
barometer
mb
20260902211510 72 179 0.0 0.0 0.00 0.48 0.48 92 1019.4
20260902210007 72 179 0.0 0.0 0.00 0.48 0.48 93 1019.5
20260902204508 72 179 0.0 0.0 0.00 0.48 0.48 93 1019.4
20260902203006 72 179 0.0 0.0 0.00 0.48 0.48 93 1019.2
20260902201512 72 179 0.0 0.0 0.00 0.48 0.48 93 1019.3
20260902200011 72 179 0.0 0.0 0.00 0.48 0.48 92 1019.5
20260902194512 71 179 0.0 0.0 0.00 0.48 0.48 92 1019.0
20260902193011 72 179 0.0 0.0 0.00 0.48 0.48 92 1018.7
20260902191511 72 179 0.0 0.0 0.00 0.48 0.48 93 1018.8
20260902190010 72 179 0.0 0.0 0.00 0.48 0.48 93 1019.4
20260902184512 71 179 0.0 0.0 0.00 0.48 0.48 94 1019.4
20260902183013 71 179 0.0 0.0 0.03 0.48 0.48 93 1019.9
20260902181514 70 179 0.0 0.0 0.23 0.48 0.48 93 1019.9
20260902180019 70 179 0.0 0.0 0.48 0.48 0.48 92 1020.4
20260902175527 71 179 0.0 0.0 0.48 0.48 0.48 92 1021.1
20260902175523 72 179 0.0 1.0 0.45 0.45 0.45 90 1022.1
20260902175520 75 304 1.0 6.0 0.25 0.25 0.25 85 1022.6
20260902170015 81 205 0.0 0.0 0.00 0.00 0.00 81 1021.5
20260902164511 82 203 0.0 0.0 0.00 0.00 0.00 80 1021.0
20260902163020 82 202 0.0 0.0 0.00 0.00 0.00 80 1020.4
20260902161529 82 202 0.0 0.0 0.00 0.00 0.00 81 1020.4
20260902160020 82 200 0.0 0.0 0.00 0.00 0.00 80 1020.3
20260902154520 82 200 0.0 0.0 0.00 0.00 0.00 79 1020.0
20260902153021 81 203 0.0 0.0 0.00 0.00 0.00 80 1019.8
20260902151512 81 203 0.0 0.0 0.00 0.00 0.00 78 1019.8
20260902150023 81 203 0.0 0.0 0.00 0.00 0.00 81 1019.8
20260902144531 80 203 0.0 0.0 0.00 0.00 0.00 81 1019.8
20260902143027 79 203 0.0 0.0 0.00 0.00 0.00 83 1019.9
20260902141533 78 208 0.0 0.0 0.00 0.00 0.00 84 1020.0
20260902140027 77 208 0.0 0.0 0.00 0.00 0.00 83 1020.1
20260902134523 77 208 0.0 0.0 0.00 0.00 0.00 85 1019.9
20260902133031 76 209 0.0 0.0 0.00 0.00 0.00 88 1019.7
20260902131527 74 209 0.0 0.0 0.00 0.00 0.00 90 1019.8
20260902130033 73 209 0.0 0.0 0.00 0.00 0.00 91 1019.7
20260902124528 72 209 0.0 0.0 0.00 0.00 0.00 92 1019.5
20260902123025 71 209 0.0 0.0 0.00 0.00 0.00 92 1019.4
20260902121520 71 209 0.0 0.0 0.00 0.00 0.00 92 1019.4
20260902120029 70 209 0.0 0.0 0.00 0.00 0.00 92 1019.4
20260902114531 70 209 0.0 0.0 0.00 0.00 0.00 92 1019.3
20260902113033 69 209 0.0 0.0 0.00 0.00 0.00 92 1019.5
20260902111529 70 209 0.0 0.0 0.00 0.00 0.00 92 1019.3
20260902110008 69 209 0.0 0.0 0.00 0.00 0.00 92 1019.2
20260902104505 69 216 0.0 0.0 0.00 0.00 0.00 92 1019.2
20260902103023 69 216 0.0 0.0 0.00 0.00 0.00 92 1019.4
20260902101519 69 216 0.0 0.0 0.00 0.00 0.00 92 1019.3
20260902100016 69 216 0.0 0.0 0.00 0.00 0.00 92 1019.2
20260902094509 69 216 0.0 0.0 0.00 0.00 0.00 92 1019.0
20260902093004 69 216 0.0 0.0 0.00 0.00 0.00 92 1019.1
20260902091509 70 216 0.0 0.0 0.00 0.00 0.00 92 1019.0
20260902090025 70 216 0.0 0.0 0.00 0.00 0.00 91 1019.0
20260902084522 70 216 0.0 0.0 0.00 0.00 0.00 91 1019.1
20260902083018 71 216 0.0 0.0 0.00 0.00 0.00 91 1018.9
20260902081512 71 216 0.0 0.0 0.00 0.00 0.00 90 1018.9
20260902080010 72 216 0.0 0.0 0.00 0.00 0.00 89 1018.8
20260902074531 71 217 0.0 0.0 0.00 0.00 0.00 90 1018.7
20260902073027 72 217 0.0 0.0 0.00 0.00 0.00 89 1018.5
20260902071527 72 217 0.0 0.0 0.00 0.00 0.00 88 1018.3
20260902070018 73 217 0.0 0.0 0.00 0.00 0.00 88 1018.2
20260902064522 73 217 0.0 0.0 0.00 0.00 0.00 87 1018.2
20260902063011 74 217 0.0 0.0 0.00 0.00 0.00 85 1018.3
20260902061531 74 217 0.0 0.0 0.00 0.00 0.00 85 1018.2
20260902060031 74 217 0.0 0.0 0.00 0.00 0.00 84 1018.1
20260902054534 75 217 0.0 0.0 0.00 0.00 0.00 82 1018.1
20260902053025 76 217 0.0 0.0 0.00 0.00 0.00 81 1018.2
20260902051534 77 217 0.0 0.0 0.00 0.00 0.00 79 1018.3
20260902050016 78 217 0.0 1.0 0.00 0.00 0.00 78 1018.4
20260902044514 78 200 0.0 0.0 0.00 0.00 0.00 77 1018.5
20260902043008 79 210 0.0 0.0 0.00 0.00 0.00 74 1018.2
20260902041544 80 229 0.0 0.0 0.00 0.00 0.00 73 1018.2
20260902040027 80 229 0.0 2.0 0.00 0.00 0.00 73 1017.5
20260902034526 81 229 1.0 2.0 0.00 0.00 0.00 71 1017.5
20260902033017 81 230 2.0 3.0 0.00 0.00 0.00 71 1017.2
20260902031511 81 229 1.0 2.0 0.00 0.00 0.00 72 1016.8
20260902030010 81 230 2.0 3.0 0.00 0.00 0.00 73 1016.8
20260902024530 80 228 1.0 3.0 0.00 0.00 0.00 73 1016.6
20260902023028 81 223 2.0 2.0 0.00 0.00 0.00 74 1016.5
20260902021526 81 219 0.0 0.0 0.00 0.00 0.00 74 1016.7
20260902020024 81 217 0.0 0.0 0.00 0.00 0.00 74 1016.7
20260902014523 81 217 0.0 0.0 0.00 0.00 0.00 74 1016.6
20260902013036 81 216 0.0 0.0 0.00 0.00 0.00 75 1016.7
20260902011530 81 216 0.0 0.0 0.00 0.00 0.00 74 1016.6
20260902010038 82 216 0.0 0.0 0.00 0.00 0.00 72 1016.4
20260902004534 83 216 0.0 1.0 0.00 0.00 0.00 71 1016.1
20260902003105 83 216 1.0 2.0 0.00 0.00 0.00 72 1015.8
20260902001518 83 215 0.0 0.0 0.00 0.00 0.00 72 1015.5
20260902000036 84 214 0.0 0.0 0.00 0.00 0.00 71 1015.1
20260901234533 84 214 0.0 0.0 0.00 0.00 0.00 70 1015.0
20260901233036 85 214 0.0 0.0 0.00 0.00 0.00 69 1015.1
20260901231528 86 214 0.0 0.0 0.00 0.00 0.00 68 1015.0
20260901230027 87 214 0.0 0.0 0.00 0.00 0.00 68 1015.1
20260901224521 86 213 0.0 0.0 0.00 0.00 0.00 69 1015.3
20260901223034 87 213 0.0 0.0 0.00 0.00 0.00 70 1015.1
20260901221539 88 214 0.0 0.0 0.00 0.00 0.00 69 1015.3
20260901220039 89 214 0.0 0.0 0.00 0.00 0.00 68 1015.4
20260901214533 90 214 0.0 1.0 0.00 0.00 0.00 63 1015.5
20260901213030 90 216 0.0 2.0 0.00 0.00 0.00 65 1015.5